Regional Weather Roundup
Issued by NWS

Home | Current Version | Previous Version | Text Only | Print | Product List | Glossary Off
Versions: 1 2 3 4 5 6 7 8 9 10 11 12 13 14 15 16 17 18 19 20 21 22 23 24 25 26 27 28 29 30 31 32 33 34 35 36 37 38 39 40 41 42 43 44 45 46 47 48 49 50

000
ASUS43 KMPX 232210
RWRMN
WEATHER ROUNDUP FOR MINNESOTA
NATIONAL WEATHER SERVICE TWIN CITIES/CHANHASSEN MN
500 PM CDT FRI JUN 23 2017


NOTE: "FAIR" INDICATES FEW OR NO CLOUDS BELOW 12,000 FEET WITH NO
SIGNIFICANT WEATHER AND/OR OBSTRUCTIONS TO VISIBILITY. N/A MEANS
CURRENT SKY AND/OR WEATHER CONDITIONS ARE NOT AVAILABLE.

MNZ060>063-068>070-232300-
   Twin Cities Metro

CITY           SKY/WX    TMP DP  RH WIND       PRES   REMARKS
TWIN CITIES    PTSUNNY   73  53  49 NW15G24   29.81R
ST PAUL        CLOUDY    69  53  56 W15       29.81R
CRYSTAL        LGT RAIN  68  51  54 NW17G26   29.81R
BLAINE         PTSUNNY   72  52  49 W15G23    29.81R
LAKEVILLE      MOSUNNY   66  54  63 W13G25    29.83R
EDEN PRAIRIE   PTSUNNY   70  53  54 NW17G23   29.82R
SOUTH ST PAUL  PTSUNNY   71  51  48 NW17G23   29.81R
LAKE ELMO      PTSUNNY   66  52  59 N10G16    29.82R
$$
MNZ001>005-007-008-013>017-022>024-027-028-232300-
   Northwest Minnesota

CITY           SKY/WX    TMP DP  RH WIND       PRES   REMARKS
BEMIDJI        CLOUDY    58  48  70 W17G25    29.86R
HALLOCK        CLOUDY    61  46  59 NW12      29.90R
ROSEAU           N/A     57  50  77 NW14G25   29.87R
WARROAD        CLOUDY    57  52  82 NW16G24   29.85S
THIEF RVR FALL CLOUDY    60  48  64 NW14G22   29.90S
CROOKSTON      MOSUNNY   64  48  55 N12       29.90S
FOSSTON        CLOUDY    57  48  72 NW14G21   29.90R
DETROIT LAKES  CLOUDY    61  46  59 NW20G26   29.91S
MOORHEAD       PTSUNNY   64  45  48 NW13      29.93R
PARK RAPIDS    CLOUDY    62  47  57 NW20G26   29.87S
MAHNOMEN       CLOUDY    60  47  62 NW15      29.90R
$$
MNZ006-009>011-018-025>026-232300-
   North Central Minnesota

CITY           SKY/WX    TMP DP  RH WIND       PRES   REMARKS
BAUDETTE       CLOUDY    58  53  84 NW20G28   29.81R
FLAG ISLAND    CLOUDY    57  52  82 W21       29.80R
INTL FALLS     CLOUDY    62  55  77 W13       29.75R
WASKISH        CLOUDY    57  52  82 W15G30    29.83R
BIG FORK       MOSUNNY   63  52  67 NW8G16    29.79S
LONGVILLE      MOSUNNY   64  52  63 NW15G21   29.82S
GRAND RAPIDS   PTSUNNY   62  51  67 NW21      29.81R
CRANE LAKE     MOSUNNY   64  48  55 NW13G20   29.73R
ORR            CLOUDY    64  52  63 W16G22    29.72R
COOK           MOSUNNY   64  54  68 W22G28    29.75R
WALKER         CLOUDY    60  49  67 W17G25    29.85R
$$
MNZ012-019>021-037-232300-
   Northeast Minnesota

CITY           SKY/WX    TMP DP  RH WIND       PRES   REMARKS
DULUTH         PTSUNNY   67  51  56 W10       29.74R
ELY            PTSUNNY   64  45  48 NW8G18    29.70S
HIBBING        LGT RAIN  56  53  90 W8        29.76R
EVELETH        MOSUNNY   64  44  46 NW10G23   29.75R
DULUTH HARBOR  PTSUNNY   70  55  60 W15       29.73R
TWO HARBORS    MOSUNNY   73  54  49 NW10G20   29.69R
SILVER BAY     PTSUNNY   72  46  40 W7        29.67S
GRAND MARAIS     N/A     73  50  44 W10G21    29.63R
G MARAIS ARPRT MOSUNNY   64  45  48 W8G18     29.67R
$$
MNZ029>031-032-039>041-046>048-054>057-064-232300-
   West Central Minnesota

CITY           SKY/WX    TMP DP  RH WIND       PRES   REMARKS
FERGUS FALLS   CLOUDY    63  46  55 NW21G29   29.90R
WHEATON        PTSUNNY   64  45  48 NW17G26   29.95S
MORRIS         CLOUDY    64  48  55 NW20G28   29.92R
ALEXANDRIA     CLOUDY    63  49  60 NW23G31   29.91R
ELBOW LAKE     CLOUDY    63  48  59 NW22G29   29.92S
WADENA         PTSUNNY   63  48  59 NW15G24   29.88R
GLENWOOD       MOSUNNY   63  52  67 NW22G29   29.91R
APPLETON       CLOUDY    66  46  48 NW17      29.92S
BENSON         CLOUDY    66  48  52 N20G28    29.93R
ORTONVILLE     CLOUDY    66  46  48 NW18G26   29.94R
MADISON        CLOUDY    70  52  52 NW15G23   29.94S
WILLMAR        FAIR      66  52  59 NW24      29.91R
$$
MNZ033>034-036-042>043-049>051-058-059-232300-
   Central Minnesota

CITY           SKY/WX    TMP DP  RH WIND       PRES   REMARKS
ST CLOUD       PTSUNNY   69  51  52 NW25G35   29.83R
SAUK CENTRE    MOCLDY    65  50  58 W17G26    29.88R
PAYNESVILLE    PTSUNNY   65  49  56 NW15G26   29.89R
AITKIN         PTSUNNY   63  54  72 W8        29.80R
PINE RIVER     LGT RAIN  61  54  77 W13G22    29.87R
BRAINERD       PTSUNNY   67  51  56 W15G28    29.83R
STAPLES        PTSUNNY   64  48  55 NW20G29   29.86R
LONG PRAIRIE   PTSUNNY   63  52  67 W17G25    29.88R
LITTLE FALLS   CLOUDY    68  48  49 W17G29    29.84S
LITCHFIELD     MOSUNNY   70  54  56 NW21G29   29.88R
BUFFALO        MOSUNNY   70  50  49 W20G31    29.85R
MAPLE LAKE     MOSUNNY   70  55  57 NW14G21   29.85R
HUTCHINSON     PTSUNNY   69  54  59 NW16G23   29.89R
$$
MNZ037-044-045-052-053-232300-
   East Central Minnesota

CITY           SKY/WX    TMP DP  RH WIND       PRES   REMARKS
PRINCETON      PTSUNNY   70  55  60 NW14      29.83R
MORA           PTSUNNY   64  54  68 W9G16     29.82S
CAMBRIDGE      PTSUNNY   66  54  63 NW12      29.80S
RUSH CITY      MOSUNNY   64  54  68 W10G18    29.81R
MOOSE LAKE     CLOUDY    64  52  63 W9        29.76S
HINCKLEY       HVY RAIN  61  55  82 NW14G20   29.81R
CLOQUET        CLOUDY    66  45  45 W13G26    29.76R
MCGREGOR       PTSUNNY   61  52  72 NW9       29.81R
$$
MNZ071>073-080-081-089-090-097-098-232300-
   Southwest Minnesota

CITY           SKY/WX    TMP DP  RH WIND       PRES   REMARKS
MONTEVIDEO     CLOUDY    66  52  59 N14G23    29.93R
GRANITE FALLS  CLOUDY    67  52  57 W21G26    29.94S
CANBY          CLOUDY    65  49  55 W20G25    29.98R
MARSHALL       CLOUDY    65  50  58 NW23G33   29.95R
REDWOOD FALLS  CLOUDY    67  49  52 NW17G26   29.91R
OLIVIA         CLOUDY    68  50  52 NW16G23   29.90R
PIPESTONE      PTSUNNY   64  48  55 NW17G25   29.99R
WINDOM         SUNNY     68  50  52 NW22G28   29.94R
WORTHINGTON    CLOUDY    66  51  58 NW16G29   29.97R
JACKSON        CLOUDY    64  50  59 NW21      29.95R
TRACY          CLOUDY    66  52  59 NW18G25   29.96R
SLAYTON        CLOUDY    65  49  56 NW22      29.97S
$$
MNZ065>067-074>077-082>085-091>093-232300-
   South Central Minnesota

CITY           SKY/WX    TMP DP  RH WIND       PRES   REMARKS
MANKATO        CLOUDY    68  53  58 NW24      29.87S
NEW ULM        MOSUNNY   68  52  56 NW25G31   29.89S
ST JAMES       MOSUNNY   70  52  52 W17G26    29.92R
FAIRMONT       PTSUNNY   68  52  56 NW20G30   29.91S
GLENCOE        CLOUDY    71  57  62 W18G28    29.86R
FARIBAULT      PTSUNNY   66  59  77 W12G18    29.86S
OWATONNA       MOSUNNY   70  55  60 NW16G22   29.86S
WASECA         CLOUDY    64  54  68 W14G22    29.89R
ALBERT LEA     PTSUNNY   66  54  63 NW9G22    29.88R
$$
MNZ078>079-086>088-094>096-232300-
   Southeast Minnesota

CITY           SKY/WX    TMP DP  RH WIND       PRES   REMARKS
ROCHESTER      PTSUNNY   68  56  65 NW16      29.84R
RED WING       CLOUDY    72  48  43 NW8G16    29.79R
STANTON        CLOUDY    68  52  56 W20G28    29.82R
DODGE CENTER   PTSUNNY   64  54  68 W20G28    29.86R
WINONA         MOSUNNY   73  55  53 NW12G18   29.79S
AUSTIN         CLOUDY    66  52  59 NW16G22   29.86R
PRESTON        CLOUDY    68  57  68 NW13G18   29.84S
$$
ABBREVIATIONS USED IN REMARKS
   TC - TEMPERATURES IN CELSIUS
  WCI - WIND CHILL INDEX
   HX - HEAT INDEX
  VSB - VISIBILITY
$$




USA.gov is the U.S. government's official web portal to all federal, state and local government web resources and services.